Weather observations for the past three days for
Hermiston, Hermiston Municipal Airport
Imperial (Metric)
Date Time (pdt) Wind (mph) Vis. (mi.) Weather Sky Cond. Temperature (ºF) Relative Humidity Wind Chill (°F) Heat Index (°F) Pressure Precipitation (in)
Air Dwpt 6 hour altimeter (in) sea level (mb) 1 hr 3 hr 6 hr
Max. Min.
04 22:53 S 5 10.00 Fair CLR 63 48 88 62.1 58% 29.71 1005.4
04 21:53 S 8 10.00 Mostly Cloudy BKN120 66 48 52% 29.69 1005.0
04 20:53 SW 8 10.00 Fair CLR 73 42.1 33% 29.68 1004.5
04 19:53 S 5 10.00 Fair CLR 75.9 45 33% 77 29.66 1004.0
04 18:53 E 5 10.00 Fair CLR 84 43 24% 81 29.67 1004.2
04 17:53 E 3 10.00 Fair CLR 87.1 39 18% 84 29.68 1004.6
04 16:53 SW 6 10.00 Fair CLR 87.1 41 88 73.9 20% 84 29.68 1004.6
04 15:53 Calm 10.00 Fair CLR 86 39 19% 83 29.7 1005.1
04 14:53 N 7 10.00 Fair CLR 86 42.1 21% 83 29.72 1005.9
04 13:53 Calm 10.00 Fair CLR 84.9 41 21% 82 29.74 1006.6
04 12:53 Vrbl 6 10.00 Fair CLR 82 44.1 26% 80 29.76 1007.2
04 11:53 Vrbl 3 10.00 Fair CLR 78.1 44.1 30% 78 29.77 1007.7
04 10:53 Calm 10.00 Fair CLR 73.9 44.1 73.9 46 34% 29.79 1008.3
04 09:53 Vrbl 6 10.00 Fair CLR 70 46 42% 29.79 1008.3
04 08:53 Calm 0.00 NULL NULL 64 44.1 48% 29.79 1008.5
04 07:53 SW 3 10.00 Fair CLR 60.1 45 58% 29.79 1008.2
04 06:53 Calm 10.00 Fair CLR 52 46 80% 29.78 1008.1
04 05:53 SE 7 10.00 Fair CLR 46 43 89% 43 29.76 1007.4
04 04:53 SE 3 10.00 Fair CLR 46.9 44.1 59 45 90% 29.76 1007.4
04 03:53 Calm 10.00 Fair CLR 46.9 44.1 90% 29.76 1007.5
04 02:53 SE 3 10.00 Fair CLR 48 44.1 86% 29.77 1007.5
04 01:53 SE 5 10.00 Fair CLR 51.1 45 80% 29.76 1007.4
04 00:53 Calm 10.00 Fair CLR 53.1 44.1 72% 29.77 1007.6
03 23:53 S 3 10.00 Fair CLR 57 44.1 62% 29.76 1007.5
03 22:53 S 7 10.00 Fair CLR 57.9 45 86 57.9 62% 29.76 1007.3
03 21:53 S 9 10.00 Fair CLR 62.1 48 60% 29.76 1007.3
03 20:53 SE 3 10.00 Fair CLR 61 45 56% 29.75 1007.1
03 19:53 E 5 10.00 Fair CLR 75 46 36% 77 29.74 1006.6
03 18:53 NE 7 10.00 Fair CLR 82 45 27% 80 29.75 1007.1
03 17:53 NE 6 10.00 Fair CLR 84.9 39.9 20% 82 29.77 1007.8
03 16:53 E 8 G 18 10.00 Fair CLR 86 39 87.1 72 19% 83 29.79 1008.3
03 15:53 NE 5 10.00 Fair CLR 86 37 18% 83 29.81 1008.9
03 14:53 E 9 10.00 Fair CLR 87.1 39.9 19% 84 29.83 1009.8
03 13:53 NE 10 G 16 10.00 Fair CLR 84 42.1 23% 81 29.86 1010.6
03 12:53 NE 7 10.00 Fair CLR 81 46 29% 80 29.88 1011.4
03 11:53 Vrbl 3 10.00 Fair CLR 77 46 33% 78 29.9 1012.2
03 10:53 Calm 10.00 Fair CLR 72 46 73 46 40% 29.92 1012.9
03 09:53 W 3 10.00 Fair CLR 70 46.9 44% 29.93 1013.2
03 08:53 W 6 10.00 Fair CLR 64 50 60% 29.94 1013.5
03 07:53 Calm 10.00 Fair CLR 57.9 48.9 72% 29.93 1013.3
03 06:53 S 3 10.00 Fair CLR 52 48 86% 29.93 1012.9
03 05:53 SE 3 10.00 Fair CLR 46.9 45 93% 29.91 1012.6
03 04:53 SE 6 10.00 Fair CLR 48.9 46 57.9 46.9 90% 47 29.91 1012.5
03 03:53 S 3 10.00 Fair CLR 48 44.1 86% 29.91 1012.5
03 02:53 SE 7 10.00 Fair CLR 52 46 80% 29.91 1012.3
03 01:53 Calm 10.00 Fair CLR 50 46.9 89% 29.9 1012.3
03 00:53 Calm 10.00 Fair CLR 52 48 86% 29.9 1012.1
02 23:53 S 5 10.00 Fair CLR 55.9 48 75% 29.89 1011.7
02 22:53 S 6 10.00 Fair CLR 57.9 48 84.9 57 70% 29.88 1011.3
02 21:53 S 6 10.00 Fair CLR 57.9 50 75% 29.87 1011.2
02 20:53 SE 5 10.00 Fair CLR 63 48 58% 29.85 1010.5
02 19:53 NE 6 10.00 Fair CLR 73 45 37% 29.82 1009.5
02 18:53 NE 6 10.00 Fair CLR 81 46 29% 80 29.82 1009.2
02 17:53 NE 6 10.00 Fair CLR 84 43 24% 81 29.83 1009.5
02 16:53 E 7 10.00 Fair CLR 84 37.9 84 71.1 19% 81 29.84 1010.0
02 15:53 Vrbl 3 10.00 Fair CLR 82 45 27% 80 29.86 1010.6
02 14:53 E 5 10.00 Fair CLR 80.1 46 30% 79 29.88 1011.5
02 13:53 Calm 10.00 Fair CLR 77 46 33% 78 29.9 1012.1
02 12:53 S 5 10.00 Fair CLR 75 48 39% 77 29.92 1012.7
02 11:53 NE 3 10.00 Fair CLR 75 46.9 37% 77 29.93 1013.3
02 10:53 NE 5 10.00 Fair CLR 72 46.9 72 46.9 41% 29.94 1013.4
02 09:53 E 3 10.00 Fair CLR 68 46.9 47% 29.94 1013.5
02 08:53 Calm 10.00 Fair CLR 64 48 56% 29.94 1013.5
02 07:53 W 3 10.00 Fair CLR 59 46.9 64% 29.93 1013.2
02 06:53 S 3 10.00 Fair CLR 52 48.9 89% 29.92 1013.0
02 05:53 S 3 10.00 Fair CLR 48.9 46 90% 29.91 1012.4
02 04:53 E 6 10.00 Fair CLR 50 46.9 62.1 48.9 89% 48 29.9 1012.1
02 03:53 S 5 10.00 Fair CLR 53.1 45 74% 29.9 1011.9
02 02:53 Calm 10.00 Fair CLR 55.9 44.1 65% 29.89 1011.7
02 01:53 E 9 10.00 Fair CLR 55.9 46 70% 29.89 1011.8
02 00:53 E 6 10.00 Fair CLR 57 46.9 69% 29.89 1011.8
01 23:53 E 7 10.00 Fair CLR 57 46 67% 29.89 1011.8
Date Time (pdt) Wind (mph) Vis. (mi.) Weather Sky Cond. Air Dwpt Max. Min. Relative Humidity Wind Chill (°F) Heat Index (°F) altimeter (in) sea level (mb) 1 hr 3 hr 6 hr
6 hour
Temperature (ºF) Pressure Precipitation (in)